• In Deutschland
  • Länderverzeichnis
  • Für 7 Tage
  • Wassertemperatur
  • Satellitenkarten
  • Wetterkarte
  • Widgets
  • user-avatar
    Anmelden

    Stündliche Wetter List

    Heute, 23 Oktober, Montag

    Zeit Temperatur Niederschläge Wind Luftdruck Luftfeuchtigkeit
    00:00 +7°C° 0 mm 3 m/S 746 mmHg 87%
    01:00 +7°C° 0 mm 3 m/S 746 mmHg 90%
    02:00 +7°C° 0 mm 3 m/S 746 mmHg 90%
    03:00 +7°C° 0 mm 3 m/S 746 mmHg 90%
    04:00 +7°C° 0 mm 3 m/S 746 mmHg 90%
    05:00 +7°C° 0 mm 3 m/S 746 mmHg 90%
    06:00 +5°C° 0 mm 3 m/S 747 mmHg 90%
    07:00 +5°C° 0 mm 3 m/S 747 mmHg 91%
    08:00 +7°C° 0 mm 3 m/S 747 mmHg 87%
    09:00 +8°C° 0 mm 3 m/S 747 mmHg 84%
    10:00 +8°C° 0 mm 4 m/S 747 mmHg 80%
    11:00 +8°C° 0 mm 4 m/S 748 mmHg 78%
    12:00 +10°C° 0 mm 4 m/S 748 mmHg 76%
    13:00 +11°C° 0 mm 4 m/S 748 mmHg 73%
    14:00 +11°C° 0 mm 4 m/S 748 mmHg 74%
    15:00 +11°C° 0 mm 4 m/S 748 mmHg 75%
    16:00 +11°C° 0 mm 4 m/S 748 mmHg 76%
    17:00 +10°C° 0 mm 3 m/S 748 mmHg 79%
    18:00 +10°C° 0 mm 3 m/S 748 mmHg 83%
    19:00 +10°C° 0 mm 3 m/S 749 mmHg 87%
    20:00 +9°C° 0 mm 3 m/S 749 mmHg 89%
    21:00 +9°C° 0 mm 3 m/S 749 mmHg 91%
    22:00 +9°C° 0 mm 2 m/S 750 mmHg 93%
    23:00 +9°C° 0 mm 2 m/S 750 mmHg 93%

    Morgen, 24 Oktober, Dienstag

    Zeit Temperatur Niederschläge Wind Luftdruck Luftfeuchtigkeit
    00:00 +9°C° 0 mm 2 m/S 750 mmHg 93%
    01:00 +9°C° 0 mm 2 m/S 750 mmHg 93%
    02:00 +9°C° 0,1 mm 2 m/S 750 mmHg 93%
    03:00 +9°C° 0,1 mm 2 m/S 750 mmHg 93%
    04:00 +10°C° 0,1 mm 2 m/S 750 mmHg 93%
    05:00 +10°C° 0,1 mm 2 m/S 750 mmHg 93%
    06:00 +10°C° 0,1 mm 2 m/S 750 mmHg 93%
    07:00 +10°C° 0,1 mm 2 m/S 751 mmHg 93%
    08:00 +10°C° 0,1 mm 2 m/S 751 mmHg 91%
    09:00 +12°C° 0,1 mm 2 m/S 751 mmHg 90%
    10:00 +12°C° 0,1 mm 2 m/S 751 mmHg 88%
    11:00 +13°C° 0 mm 2 m/S 751 mmHg 85%
    12:00 +13°C° 0 mm 3 m/S 751 mmHg 83%
    13:00 +14°C° 0 mm 3 m/S 751 mmHg 80%
    14:00 +14°C° 0 mm 3 m/S 751 mmHg 80%
    15:00 +16°C° 0 mm 3 m/S 751 mmHg 81%
    16:00 +16°C° 0 mm 2 m/S 750 mmHg 81%
    17:00 +15°C° 0 mm 2 m/S 750 mmHg 84%
    18:00 +14°C° 0 mm 2 m/S 751 mmHg 87%
    19:00 +14°C° 0 mm 2 m/S 751 mmHg 90%
    20:00 +14°C° 0 mm 2 m/S 751 mmHg 91%
    21:00 +14°C° 0 mm 2 m/S 751 mmHg 92%
    22:00 +14°C° 0 mm 2 m/S 751 mmHg 92%
    23:00 +14°C° 0 mm 2 m/S 751 mmHg 92%

    übermorgen, 25 Oktober, Mittwoch

    Zeit Temperatur Niederschläge Wind Luftdruck Luftfeuchtigkeit
    00:00 +14°C° 0 mm 2 m/S 751 mmHg 92%
    01:00 +14°C° 0 mm 2 m/S 751 mmHg 92%
    02:00 +13°C° 0 mm 2 m/S 750 mmHg 93%
    03:00 +13°C° 0 mm 2 m/S 750 mmHg 93%
    04:00 +13°C° 0 mm 2 m/S 750 mmHg 93%
    05:00 +13°C° 0 mm 2 m/S 750 mmHg 93%
    06:00 +13°C° 0 mm 2 m/S 750 mmHg 93%
    07:00 +13°C° 0 mm 2 m/S 750 mmHg 93%
    08:00 +13°C° 0 mm 2 m/S 751 mmHg 89%
    09:00 +14°C° 0 mm 2 m/S 751 mmHg 85%
    10:00 +15°C° 0 mm 2 m/S 751 mmHg 82%
    11:00 +16°C° 0 mm 2 m/S 751 mmHg 78%
    12:00 +17°C° 0 mm 3 m/S 751 mmHg 75%
    13:00 +19°C° 0 mm 3 m/S 751 mmHg 71%
    14:00 +18°C° 0 mm 3 m/S 751 mmHg 72%
    15:00 +18°C° 0 mm 2 m/S 751 mmHg 74%
    16:00 +18°C° 0 mm 2 m/S 751 mmHg 75%
    17:00 +18°C° 0 mm 1 m/S 751 mmHg 80%
    18:00 +16°C° 0 mm 1 m/S 751 mmHg 84%
    19:00 +15°C° 0 mm 1 m/S 751 mmHg 89%
    20:00 +14°C° 0 mm 1 m/S 752 mmHg 90%
    21:00 +14°C° 0 mm 1 m/S 752 mmHg 91%
    22:00 +12°C° 0 mm 0 m/S 752 mmHg 92%
    23:00 +13°C° 0 mm 1 m/S 752 mmHg 92%

    26 Oktober, Donnerstag

    Zeit Temperatur Niederschläge Wind Luftdruck Luftfeuchtigkeit
    00:00 +13°C° 0 mm 1 m/S 752 mmHg 92%
    01:00 +13°C° 0 mm 1 m/S 752 mmHg 93%
    02:00 +13°C° 0 mm 1 m/S 752 mmHg 93%
    03:00 +12°C° 0 mm 1 m/S 752 mmHg 93%
    04:00 +12°C° 0 mm 1 m/S 751 mmHg 93%
    05:00 +12°C° 0 mm 1 m/S 751 mmHg 93%
    06:00 +12°C° 0 mm 1 m/S 751 mmHg 92%
    07:00 +12°C° 0 mm 1 m/S 751 mmHg 92%
    08:00 +13°C° 0 mm 1 m/S 751 mmHg 87%
    09:00 +14°C° 0 mm 1 m/S 752 mmHg 81%
    10:00 +16°C° 0 mm 2 m/S 752 mmHg 76%
    11:00 +17°C° 0 mm 2 m/S 751 mmHg 71%
    12:00 +18°C° 0 mm 2 m/S 751 mmHg 66%
    13:00 +19°C° 0 mm 3 m/S 751 mmHg 62%
    14:00 +19°C° 0 mm 3 m/S 751 mmHg 63%
    15:00 +19°C° 0 mm 2 m/S 750 mmHg 65%
    16:00 +19°C° 0 mm 2 m/S 750 mmHg 67%
    17:00 +17°C° 0 mm 2 m/S 750 mmHg 72%
    18:00 +16°C° 0 mm 2 m/S 750 mmHg 77%
    19:00 +15°C° 0 mm 2 m/S 750 mmHg 82%
    20:00 +15°C° 0 mm 2 m/S 750 mmHg 85%
    21:00 +14°C° 0 mm 2 m/S 750 mmHg 87%
    22:00 +14°C° 0 mm 2 m/S 751 mmHg 89%
    23:00 +14°C° 0 mm 2 m/S 750 mmHg 90%

    27 Oktober, Freitag

    Zeit Temperatur Niederschläge Wind Luftdruck Luftfeuchtigkeit
    00:00 +14°C° 0 mm 2 m/S 750 mmHg 92%
    01:00 +13°C° 0 mm 2 m/S 750 mmHg 93%
    02:00 +13°C° 0 mm 2 m/S 750 mmHg 93%
    03:00 +13°C° 0 mm 2 m/S 749 mmHg 93%
    04:00 +13°C° 0 mm 2 m/S 749 mmHg 92%
    05:00 +12°C° 0,1 mm 3 m/S 749 mmHg 92%
    06:00 +12°C° 0,1 mm 3 m/S 749 mmHg 91%
    07:00 +12°C° 0,1 mm 3 m/S 748 mmHg 90%
    08:00 +12°C° 1,2 mm 3 m/S 749 mmHg 89%
    09:00 +12°C° 1,2 mm 4 m/S 749 mmHg 88%
    10:00 +13°C° 1,2 mm 4 m/S 749 mmHg 86%
    11:00 +12°C° 0,9 mm 4 m/S 749 mmHg 84%
    12:00 +12°C° 0,9 mm 4 m/S 750 mmHg 82%
    13:00 +12°C° 0,9 mm 4 m/S 750 mmHg 81%
    14:00 +12°C° 0,1 mm 3 m/S 750 mmHg 78%
    15:00 +12°C° 0,1 mm 3 m/S 750 mmHg 75%
    16:00 +13°C° 0,1 mm 3 m/S 750 mmHg 72%
    17:00 +12°C° 0 mm 3 m/S 751 mmHg 75%
    18:00 +11°C° 0 mm 3 m/S 751 mmHg 78%
    19:00 +10°C° 0 mm 3 m/S 751 mmHg 81%
    20:00 +9°C° 0 mm 3 m/S 752 mmHg 83%
    21:00 +9°C° 0 mm 2 m/S 752 mmHg 85%
    22:00 +8°C° 0 mm 2 m/S 752 mmHg 87%
    23:00 +8°C° 0 mm 2 m/S 752 mmHg 88%

    28 Oktober, Samstag

    Zeit Temperatur Niederschläge Wind Luftdruck Luftfeuchtigkeit
    00:00 +8°C° 0 mm 2 m/S 752 mmHg 89%
    01:00 +8°C° 0 mm 2 m/S 752 mmHg 90%
    02:00 +8°C° 0 mm 2 m/S 752 mmHg 90%
    03:00 +8°C° 0 mm 2 m/S 752 mmHg 89%
    04:00 +8°C° 0 mm 3 m/S 751 mmHg 89%
    05:00 +8°C° 0 mm 3 m/S 751 mmHg 88%
    06:00 +8°C° 0 mm 3 m/S 751 mmHg 87%
    07:00 +7°C° 0 mm 3 m/S 751 mmHg 87%
    08:00 +7°C° 0 mm 4 m/S 750 mmHg 84%
    09:00 +7°C° 0 mm 4 m/S 750 mmHg 81%
    10:00 +8°C° 0 mm 5 m/S 750 mmHg 78%
    11:00 +8°C° 0,1 mm 5 m/S 750 mmHg 77%
    12:00 +8°C° 0,1 mm 5 m/S 749 mmHg 76%
    13:00 +9°C° 0,1 mm 6 m/S 749 mmHg 75%
    14:00 +9°C° 0 mm 6 m/S 748 mmHg 74%
    15:00 +9°C° 0 mm 5 m/S 748 mmHg 73%
    16:00 +9°C° 0 mm 5 m/S 748 mmHg 72%
    17:00 +9°C° 0 mm 5 m/S 748 mmHg 73%
    18:00 +9°C° 0 mm 5 m/S 748 mmHg 74%
    19:00 +9°C° 0 mm 5 m/S 748 mmHg 75%
    20:00 +9°C° 0 mm 5 m/S 748 mmHg 77%
    21:00 +9°C° 0 mm 5 m/S 749 mmHg 78%
    22:00 +9°C° 0 mm 5 m/S 749 mmHg 80%
    23:00 +10°C° 0 mm 4 m/S 749 mmHg 81%

    29 Oktober, Sonntag

    Zeit Temperatur Niederschläge Wind Luftdruck Luftfeuchtigkeit
    00:00 +10°C° 0 mm 4 m/S 749 mmHg 82%
    01:00 +10°C° 0 mm 4 m/S 749 mmHg 83%
    02:00 +8°C° 0 mm 4 m/S 749 mmHg 85%
    03:00 +9°C° 0 mm 3 m/S 749 mmHg 87%
    04:00 +9°C° 0 mm 3 m/S 749 mmHg 88%
    05:00 +9°C° 0 mm 3 m/S 749 mmHg 89%
    06:00 +9°C° 0 mm 3 m/S 749 mmHg 90%
    07:00 +8°C° 0 mm 2 m/S 750 mmHg 91%
    08:00 +9°C° 0 mm 3 m/S 750 mmHg 88%
    09:00 +10°C° 0 mm 3 m/S 750 mmHg 85%
    10:00 +10°C° 0 mm 3 m/S 750 mmHg 82%
    11:00 +11°C° 0,1 mm 3 m/S 750 mmHg 80%
    12:00 +11°C° 0,1 mm 3 m/S 750 mmHg 77%
    13:00 +12°C° 0,1 mm 3 m/S 750 mmHg 74%
    14:00 +12°C° 0,1 mm 3 m/S 749 mmHg 75%
    15:00 +12°C° 0,1 mm 3 m/S 749 mmHg 76%
    16:00 +13°C° 0,1 mm 2 m/S 749 mmHg 77%
    17:00 +12°C° 0,1 mm 2 m/S 749 mmHg 81%
    18:00 +12°C° 0,1 mm 2 m/S 749 mmHg 84%
    19:00 +10°C° 0,1 mm 2 m/S 749 mmHg 88%
    20:00 +10°C° 0,1 mm 2 m/S 749 mmHg 89%
    21:00 +10°C° 0,1 mm 2 m/S 749 mmHg 90%
    22:00 +10°C° 0,1 mm 2 m/S 749 mmHg 91%
    23:00 +9°C° 0 mm 2 m/S 749 mmHg 91%
    Mehr zeigen